Minot, ND

12:15 PM CDT on September 30, 2016 (GMT -0500)
Minot International

Weather History for KMOT - March, 2013

Change the Weather History Date:

Thursday, March 28, 2013

  Actual Average Record
Temperature  
Mean Temperature 13 °F 34 °F  
Max Temperature 23 °F 44 °F 73 °F (1929)
Min Temperature 3 °F 24 °F -19 °F (1922)
Degree Days  
Heating Degree Days 52 31  
Month to date heating degree days 1456 1046  
Since 1 July heating degree days 8186 7622  
Cooling Degree Days 0 0  
Month to date cooling degree days 0 0  
Year to date cooling degree days 0 0  
Moisture  
Dew Point 9 °F    
Average Humidity 90    
Maximum Humidity 100    
Minimum Humidity 80    
Precipitation  
Precipitation 0.00 in 0.04 in 2.18 in (1985)
Month to date precipitation 0.60 0.73  
Year to date precipitation 1.14 1.64  
Sea Level Pressure  
Sea Level Pressure 30.24 in    
Wind  
Wind Speed 2 mph (NNW)    
Max Wind Speed 7 mph    
Max Gust Speed 8 mph    
Visibility 1 miles    
Events Fog , Snow    
T = Trace of Precipitation, MM = Missing Value Source: NWS Daily Summary

Daily Weather History Graph

Daily Weather History Graph

Search for Another Location

Airport or City:

Trip Planner

Search our weather history database for the weather conditions in past years. The results will help you decide how hot, cold, wet, or windy it might be!

Date:

Astronomy

Mar. 28, 2013 Rise Set
Actual Time 7:30 AM CDT 8:10 PM CDT
Civil Twilight 6:59 AM CDT 8:41 PM CDT
Nautical Twilight 6:22 AM CDT 9:19 PM CDT
Astronomical Twilight 5:43 AM CDT 9:58 PM CDT
Moon 10:16 PM CDT (3/28) 7:51 AM CDT (3/28)
Length of Visible Light 13h 42m
Length of Day
12h 39m
Full, 98% of the Moon is Illuminated
Mar 28
Full
Apr 2
Last Quarter
Apr 10
New
Apr 18
First Quarter
Apr 25
Full

Hourly Weather History & Observations

Time (CDT) Temp. Windchill Dew Point Humidity Pressure Visibility Wind Dir Wind Speed Gust Speed Precip Events Conditions
12:07 AM 6.8 °F - 5.0 °F 92% 30.16 in 0.2 mi Calm Calm - N/A Fog Light Freezing Fog
12:39 AM 6.8 °F - 5.0 °F 92% 30.16 in 0.2 mi Calm Calm - N/A Fog Light Freezing Fog
12:54 AM 6.1 °F -2.8 °F 1.9 °F 83% 30.27 in 0.2 mi NW 4.6 mph - N/A Fog Light Freezing Fog
1:54 AM 6.1 °F -0.9 °F 3.0 °F 87% 30.27 in 0.2 mi NW 3.5 mph - N/A Fog Light Freezing Fog
2:50 AM 6.8 °F -2.0 °F 3.2 °F 85% 30.16 in 0.5 mi NW 4.6 mph - N/A Fog Light Freezing Fog
2:54 AM 6.1 °F -0.9 °F 1.9 °F 83% 30.28 in 0.5 mi WNW 3.5 mph - N/A Fog Light Freezing Fog
3:02 AM 5.0 °F - 1.4 °F 85% 30.17 in 2.0 mi Calm Calm - N/A   Overcast
3:10 AM 5.0 °F - 1.4 °F 85% 30.17 in 4.0 mi Calm Calm - N/A   Overcast
3:54 AM 3.9 °F -3.4 °F 1.0 °F 88% 30.27 in 0.5 mi NNW 3.5 mph - N/A Fog Light Freezing Fog
4:02 AM 3.2 °F -4.2 °F 1.4 °F 92% 30.16 in 0.2 mi NNW 3.5 mph - N/A Fog Light Freezing Fog
4:54 AM 5.0 °F - 1.0 °F 84% 30.27 in 0.2 mi Calm Calm - N/A Fog Light Freezing Fog
5:17 AM 5.0 °F - 1.4 °F 85% 30.15 in 0.8 mi Calm Calm - N/A   Overcast
5:20 AM 6.8 °F - 1.4 °F 79% 30.15 in 2.0 mi Calm Calm - N/A   Overcast
5:28 AM 6.8 °F -0.1 °F 3.2 °F 85% 30.15 in 4.0 mi SW 3.5 mph - N/A   Overcast
5:54 AM 7.0 °F - 3.9 °F 87% 30.26 in 4.0 mi Calm Calm - 0.00 in   Overcast
6:54 AM 6.1 °F - 3.0 °F 87% 30.27 in 4.0 mi Calm Calm - N/A   Overcast
7:21 AM 6.8 °F - 3.2 °F 85% 30.16 in 2.0 mi Calm Calm - N/A   Overcast
7:54 AM 5.0 °F -5.6 °F 1.9 °F 87% 30.28 in 2.0 mi North 5.8 mph - N/A   Overcast
8:01 AM 5.0 °F -4.1 °F 1.4 °F 85% 30.16 in 0.2 mi North 4.6 mph - N/A Fog Light Freezing Fog
8:50 AM 6.8 °F - 3.2 °F 85% 30.17 in 0.5 mi Calm Calm - N/A Fog Light Freezing Fog
8:54 AM 7.0 °F - 3.9 °F 87% 30.30 in 1.0 mi Calm Calm - N/A   Overcast
9:01 AM 6.8 °F -0.1 °F 3.2 °F 85% 30.17 in 0.2 mi NNW 3.5 mph - 0.00 in Fog , Snow Light Snow
9:10 AM 8.6 °F 2.0 °F 5.0 °F 85% 30.17 in 0.2 mi North 3.5 mph - 0.00 in Fog , Snow Light Snow
9:42 AM 10.4 °F 2.2 °F 6.8 °F 85% 30.18 in 0.2 mi NW 4.6 mph - 0.00 in Fog , Snow Heavy Snow
9:54 AM 10.9 °F 4.7 °F 9.0 °F 92% 30.30 in 0.2 mi NW 3.5 mph - 0.00 in Fog , Snow Light Snow
10:25 AM 12.2 °F 6.1 °F 10.4 °F 92% 30.18 in 0.2 mi North 3.5 mph - 0.00 in Fog Light Freezing Fog
10:54 AM 14.0 °F 8.2 °F 10.9 °F 88% 30.30 in 0.2 mi North 3.5 mph - 0.00 in Fog Light Freezing Fog
11:54 AM 16.0 °F 8.8 °F 12.9 °F 88% 30.31 in 0.2 mi North 4.6 mph - N/A Fog Light Freezing Fog
12:54 PM 19.0 °F 11.1 °F 16.0 °F 88% 30.32 in 0.2 mi NNW 5.8 mph - N/A Fog Light Freezing Fog
1:54 PM 21.0 °F 14.6 °F 17.1 °F 85% 30.31 in 0.2 mi NNW 4.6 mph - N/A Fog Light Freezing Fog
2:01 PM 21.2 °F 16.4 °F 17.6 °F 86% 30.20 in 0.5 mi North 3.5 mph - N/A Fog Light Freezing Fog
2:08 PM 21.2 °F 16.4 °F 17.6 °F 86% 30.20 in 0.2 mi Variable 3.5 mph - N/A Fog Light Freezing Fog
2:54 PM 21.9 °F 17.2 °F 18.0 °F 85% 30.30 in 0.5 mi North 3.5 mph - N/A Fog Light Freezing Fog
3:01 PM 21.2 °F - 19.4 °F 93% 30.19 in 0.2 mi Calm Calm - N/A Fog Light Freezing Fog
3:54 PM 21.9 °F - 19.9 °F 92% 30.30 in 0.2 mi Calm Calm - N/A Fog Light Freezing Fog
4:54 PM 21.9 °F 17.2 °F 19.9 °F 92% 30.29 in 0.2 mi North 3.5 mph - N/A Fog Light Freezing Fog
5:54 PM 21.0 °F - 19.9 °F 96% 30.29 in 0.2 mi Calm Calm - N/A Fog Light Freezing Fog
6:32 PM 21.2 °F 16.4 °F 19.4 °F 93% 30.18 in 0.2 mi North 3.5 mph - N/A Fog Light Freezing Fog
6:54 PM 21.9 °F - 19.9 °F 92% 30.29 in 0.2 mi Calm Calm - N/A Fog Light Freezing Fog
7:54 PM 19.9 °F - 19.0 °F 96% 30.30 in 0.2 mi Calm Calm - N/A Fog Light Freezing Fog
8:54 PM 19.9 °F - 18.0 °F 92% 30.30 in 0.2 mi Calm Calm - N/A Fog Light Freezing Fog
9:54 PM 19.9 °F - 17.1 °F 89% 30.30 in 0.2 mi Calm Calm - N/A Fog Light Freezing Fog
10:54 PM 19.0 °F - 17.1 °F 92% 30.30 in 0.2 mi Calm Calm - N/A Fog Light Freezing Fog
11:54 PM 18.0 °F 11.1 °F 17.1 °F 96% 30.29 in 0.2 mi ESE 4.6 mph - N/A Fog Light Freezing Fog